QPF
0.00 0.00 0.00 0.00 0.00 0.00 0.00 0.00 0.00 0.00 0.00 0.00 0.00 0.00 0.00 0.00 0.00 0.00 0.00 0.00 0.00 0.00 0.00 0.00 0.00 0.00 0.00 0.00 0.00 0.00 0.00 0.00 0.00 0.00 0.00 0.00 0.00 0.00 0.00 0.00 0.00 0.00 0.00 0.00 0.00 0.00 0.00
0.00 0.00 0.00 0.00 0.00 0.00 0.00 0.00 0.00 0.00 0.00 0.00 0.00 0.00 0.00 0.00 0.00 0.00 0.00 0.00 0.00 0.00 0.00 0.00 0.00 0.00 0.00 0.00 0.00 0.00 0.00 0.00 0.00 0.00 0.00 0.00 0.00 0.00 0.00 0.00 0.00 0.00 0.00 0.00 0.00 0.00 0.00
0.00 0.00 0.00 0.00 0.00 0.00 0.00 0.00 0.00 0.00 0.00 0.00 0.00 0.00 0.00 0.00 0.00 0.00 0.00 0.00 0.00 0.00 0.00 0.00 0.00 0.00 0.00 0.00 0.00 0.00 0.00 0.00 0.00 0.00 0.00 0.00 0.00 0.00 0.00 0.00 0.00 0.00 0.00 0.00 0.00 0.00 0.00
0.00 0.00 0.00 0.00 0.00 0.00 0.00 0.00 0.00 0.00 0.00 0.00 0.00 0.00 0.00 0.00 0.00 0.00 0.00 0.00 0.00 0.00 0.00 0.00 0.00 0.00 0.00 0.00 0.00 0.00 0.00 0.00 0.00 0.00 0.00 0.00 0.00 0.00 0.00 0.00 0.00 0.00 0.00 0.00 0.00 0.00 0.00
0.00 0.00 0.00 0.00 0.00 0.00 0.00 0.00 0.00 0.00 0.00 0.00 0.00 0.00 0.00 0.00 0.00 0.00 0.00 0.00 0.00 0.00 0.00 0.00 0.00 0.00 0.00 0.00 0.00 0.00 0.00 0.00 0.00 0.00 0.00 0.00 0.00 0.00 0.00 0.00 0.00 0.00 0.00 0.00 0.00 0.00 0.00
0.01 0.00 0.00 0.00 0.00 0.00 0.00 0.00 0.00 0.00 0.00 0.00 0.00 0.00 0.00 0.00 0.00 0.00 0.00 0.00 0.00 0.00 0.00 0.00 0.00 0.00 0.00 0.00 0.00 0.00 0.00 0.00 0.00 0.00 0.00 0.00 0.00 0.00 0.00 0.00 0.00 0.00 0.00 0.00 0.00 0.00 0.00
0.01 0.00 0.00 0.00 0.00 0.00 0.00 0.00 0.00 0.00 0.00 0.00 0.00 0.00 0.00 0.00 0.00 0.00 0.00 0.00 0.00 0.00 0.00 0.00 0.00 0.00 0.00 0.00 0.00 0.00 0.00 0.00 0.00 0.00 0.00 0.00 0.00 0.00 0.00 0.00 0.00 0.00 0.00 0.00 0.00 0.00 0.00
0.00 0.00 0.00 0.00 0.00 0.00 0.00 0.00 0.00 0.00 0.00 0.00 0.00 0.00 0.00 0.00 0.00 0.00 0.00 0.00 0.00 0.00 0.00 0.00 0.00 0.00 0.00 0.00 0.00 0.00 0.00 0.00 0.00 0.00 0.00 0.00 0.00 0.00 0.00 0.00 0.00 0.00 0.00 0.00 0.00 0.00 0.00
0.00 0.00 0.00 0.00 0.00 0.00 0.00 0.00 0.00 0.00 0.00 0.00 0.00 0.00 0.00 0.00 0.00 0.00 0.00 0.00 0.00 0.00 0.00 0.00 0.00 0.00 0.00 0.00 0.00 0.00 0.00 0.00 0.00 0.00 0.00 0.00 0.00 0.00 0.00 0.00 0.00 0.00 0.00 0.00 0.00 0.00 0.00
0.01 0.00 0.00 0.00 0.00 0.00 0.00 0.00 0.00 0.00 0.00 0.00 0.00 0.00 0.00 0.00 0.00 0.00 0.00 0.00 0.00 0.00 0.00 0.00 0.00 0.00 0.00 0.00 0.00 0.00 0.00 0.00 0.00 0.00 0.00 0.00 0.00 0.00 0.00 0.00 0.00 0.00 0.00 0.00 0.00 0.00 0.00
0.01 0.00 0.00 0.00 0.00 0.00 0.00 0.00 0.00 0.00 0.00 0.00 0.00 0.00 0.00 0.00 0.00 0.00 0.00 0.00 0.00 0.00 0.00 0.00 0.00 0.00 0.00 0.00 0.00 0.00 0.00 0.00 0.00 0.00 0.00 0.00 0.00 0.00 0.00 0.00 0.00 0.00 0.00 0.00 0.00 0.00 0.00
0.01 0.00 0.00 0.00 0.00 0.00 0.00 0.00 0.00 0.00 0.00 0.00 0.00 0.00 0.02 0.00 0.00 0.00 0.01 0.01 0.00 0.00 0.00 0.00 0.00 0.00 0.00 0.00 0.00 0.00 0.00 0.00 0.00 0.00 0.00 0.00 0.00 0.00 0.00 0.00 0.00 0.00 0.00 0.00 0.00 0.00 0.00
0.01 0.00 0.00 0.00 0.00 0.00 0.00 0.00 0.00 0.00 0.00 0.00 0.00 0.01 0.02 0.00 0.00 0.00 0.01 0.02 0.00 0.00 0.00 0.00 0.00 0.00 0.00 0.00 0.00 0.00 0.00 0.00 0.00 0.00 0.00 0.00 0.00 0.00 0.00 0.00 0.00 0.00 0.00 0.00 0.00 0.00 0.00
0.01 0.01 0.00 0.00 0.00 0.00 0.00 0.00 0.00 0.00 0.00 0.00 0.01 0.01 0.01 0.00 0.00 0.00 0.00 0.00 0.00 0.00 0.00 0.00 0.00 0.00 0.00 0.00 0.00 0.00 0.00 0.00 0.00 0.00 0.00 0.00 0.00 0.00 0.00 0.00 0.00 0.00 0.00 0.00 0.00 0.00 0.00
0.02 0.01 0.00 0.00 0.00 0.00 0.00 0.00 0.00 0.00 0.00 0.00 0.01 0.02 0.01 0.00 0.00 0.00 0.00 0.00 0.00 0.00 0.00 0.00 0.00 0.00 0.00 0.00 0.00 0.00 0.00 0.00 0.00 0.00 0.00 0.00 0.00 0.00 0.00 0.00 0.00 0.00 0.00 0.00 0.00 0.00 0.00
0.01 0.01 0.01 0.00 0.00 0.00 0.00 0.00 0.00 0.00 0.00 0.00 0.02 0.02 0.00 0.00 0.00 0.00 0.00 0.00 0.00 0.00 0.00 0.00 0.00 0.00 0.00 0.00 0.00 0.00 0.00 0.00 0.00 0.00 0.00 0.00 0.00 0.00 0.00 0.00 0.00 0.00 0.00 0.00 0.00 0.00 0.00
0.00 0.01 0.01 0.00 0.00 0.01 0.01 0.01 0.00 0.00 0.00 0.00 0.02 0.02 0.01 0.00 0.00 0.00 0.00 0.00 0.00 0.00 0.00 0.00 0.00 0.00 0.00 0.00 0.00 0.00 0.00 0.00 0.00 0.00 0.00 0.00 0.00 0.00 0.00 0.00 0.00 0.00 0.00 0.00 0.00 0.00 0.00
0.00 0.00 0.01 0.00 0.00 0.01 0.01 0.00 0.00 0.00 0.01 0.02 0.01 0.01 0.00 0.00 0.00 0.00 0.00 0.00 0.00 0.00 0.00 0.00 0.00 0.00 0.00 0.00 0.00 0.00 0.00 0.00 0.00 0.00 0.00 0.00 0.00 0.00 0.00 0.00 0.00 0.00 0.00 0.00 0.00 0.00 0.00
0.01 0.00 0.01 0.00 0.00 0.00 0.01 0.00 0.00 0.00 0.01 0.01 0.01 0.00 0.00 0.00 0.00 0.00 0.00 0.00 0.00 0.00 0.00 0.00 0.00 0.00 0.00 0.00 0.00 0.00 0.00 0.00 0.00 0.00 0.00 0.00 0.00 0.00 0.00 0.00 0.00 0.00 0.00 0.00 0.00 0.00 0.00
0.00 0.00 0.00 0.00 0.00 0.00 0.00 0.00 0.00 0.00 0.02 0.03 0.02 0.00 0.00 0.00 0.00 0.00 0.00 0.00 0.00 0.00 0.00 0.00 0.00 0.00 0.00 0.00 0.00 0.00 0.00 0.00 0.00 0.00 0.00 0.00 0.00 0.00 0.00 0.00 0.00 0.00 0.00 0.00 0.00 0.00 0.00
0.00 0.00 0.00 0.01 0.00 0.00 0.00 0.00 0.00 0.00 0.02 0.03 0.02 0.00 0.00 0.00 0.00 0.00 0.00 0.00 0.00 0.00 0.00 0.00 0.00 0.00 0.00 0.00 0.00 0.00 0.00 0.00 0.00 0.00 0.00 0.00 0.00 0.00 0.00 0.00 0.00 0.00 0.00 0.00 0.00 0.00 0.00
0.01 0.00 0.00 0.00 0.00 0.00 0.00 0.00 0.00 0.01 0.02 0.03 0.01 0.00 0.00 0.00 0.00 0.00 0.00 0.00 0.00 0.00 0.00 0.00 0.00 0.00 0.00 0.00 0.00 0.00 0.00 0.00 0.00 0.00 0.00 0.00 0.00 0.00 0.00 0.00 0.00 0.00 0.00 0.00 0.00 0.00 0.00
0.01 0.00 0.00 0.00 0.00 0.00 0.00 0.00 0.00 0.02 0.01 0.01 0.00 0.00 0.00 0.00 0.00 0.00 0.00 0.00 0.00 0.00 0.00 0.00 0.00 0.00 0.00 0.00 0.00 0.00 0.00 0.00 0.00 0.00 0.00 0.00 0.00 0.00 0.00 0.00 0.00 0.00 0.00 0.00 0.00 0.00 0.00
0.02 0.01 0.00 0.00 0.00 0.00 0.00 0.00 0.01 0.01 0.01 0.00 0.00 0.00 0.00 0.00 0.00 0.00 0.00 0.00 0.00 0.00 0.00 0.00 0.00 0.00 0.00 0.00 0.00 0.00 0.00 0.00 0.00 0.00 0.00 0.00 0.00 0.00 0.00 0.00 0.00 0.00 0.00 0.00 0.00 0.00 0.00
0.02 0.02 0.01 0.00 0.00 0.00 0.00 0.01 0.01 0.01 0.01 0.00 0.00 0.00 0.00 0.00 0.00 0.00 0.00 0.00 0.00 0.00 0.00 0.00 0.00 0.00 0.00 0.00 0.00 0.00 0.00 0.00 0.00 0.00 0.00 0.00 0.00 0.00 0.00 0.00 0.00 0.00 0.00 0.00 0.00 0.00 0.00
0.03 0.02 0.02 0.00 0.00 0.00 0.00 0.01 0.02 0.02 0.01 0.00 0.00 0.00 0.00 0.00 0.00 0.00 0.00 0.00 0.00 0.00 0.00 0.00 0.00 0.00 0.00 0.00 0.00 0.00 0.00 0.00 0.00 0.00 0.00 0.00 0.00 0.00 0.00 0.00 0.00 0.00 0.00 0.00 0.00 0.00 0.00
0.02 0.01 0.02 0.01 0.00 0.00 0.00 0.02 0.02 0.02 0.01 0.00 0.00 0.00 0.00 0.00 0.00 0.00 0.00 0.00 0.00 0.00 0.00 0.00 0.00 0.00 0.00 0.00 0.00 0.00 0.00 0.00 0.00 0.00 0.00 0.00 0.00 0.00 0.00 0.00 0.00 0.00 0.00 0.00 0.00 0.00 0.00
0.01 0.01 0.01 0.01 0.00 0.00 0.00 0.02 0.02 0.02 0.00 0.00 0.00 0.00 0.00 0.00 0.00 0.00 0.00 0.00 0.00 0.00 0.00 0.00 0.00 0.00 0.00 0.00 0.00 0.00 0.00 0.00 0.00 0.00 0.00 0.00 0.00 0.00 0.00 0.00 0.00 0.00 0.00 0.00 0.00 0.00 0.00
0.01 0.00 0.00 0.00 0.01 0.00 0.01 0.01 0.02 0.01 0.00 0.00 0.00 0.00 0.00 0.00 0.00 0.00 0.00 0.00 0.00 0.00 0.00 0.00 0.00 0.00 0.00 0.00 0.00 0.00 0.00 0.00 0.00 0.00 0.00 0.00 0.00 0.00 0.00 0.00 0.00 0.00 0.00 0.00 0.00 0.00 0.00
MSLP
1018.04 1018.46 1018.74 1019.10 1019.38 1019.79 1019.85 1019.89 1020.17 1020.20 1020.37 1020.37 1020.48 1020.40 1020.32 1020.22 1020.06 1019.74 1019.39 1018.93 1018.52 1018.17 1017.79 1017.38 1016.86 1015.92 1014.87 1014.90 1014.37 1013.95 1013.94 1013.68 1013.34 1013.22 1013.51 1013.68 1013.84 1014.24 1014.58 1014.74 1014.51 1014.35 1014.15 1013.83 1013.75 1013.69 1013.65
1017.53 1017.88 1018.21 1018.48 1019.01 1019.38 1019.64 1019.68 1019.78 1020.25 1020.34 1020.33 1020.36 1020.38 1020.33 1020.16 1019.93 1019.71 1019.40 1018.96 1018.43 1018.08 1017.69 1017.38 1016.89 1016.31 1015.87 1015.32 1014.03 1013.97 1013.83 1013.64 1013.58 1013.55 1013.71 1013.78 1014.08 1014.37 1014.70 1014.92 1014.76 1014.67 1014.44 1014.14 1013.80 1013.79 1013.86
1016.83 1017.23 1017.72 1018.11 1018.76 1018.86 1019.19 1019.45 1019.58 1019.82 1020.35 1020.25 1020.32 1020.37 1020.27 1020.15 1019.89 1019.55 1019.25 1018.84 1018.30 1017.98 1017.60 1017.28 1016.92 1016.51 1016.11 1014.65 1013.90 1013.96 1013.92 1013.84 1013.79 1013.70 1013.81 1013.96 1014.16 1014.24 1014.79 1014.90 1014.97 1014.69 1014.52 1013.91 1013.78 1013.93 1014.19
1016.03 1016.50 1017.17 1017.82 1018.15 1018.28 1018.51 1019.01 1019.22 1019.62 1020.22 1020.12 1020.21 1020.33 1020.37 1020.05 1019.82 1019.52 1019.07 1018.46 1017.95 1017.67 1017.40 1017.15 1017.05 1016.62 1015.44 1013.94 1013.89 1013.85 1013.84 1013.77 1013.81 1013.86 1013.84 1013.98 1014.08 1014.52 1014.88 1015.23 1015.33 1015.06 1014.90 1014.33 1014.23 1014.15 1014.47
1015.38 1015.86 1016.44 1016.96 1017.40 1017.63 1018.15 1018.24 1018.79 1019.29 1019.77 1019.82 1020.11 1020.23 1020.43 1020.07 1019.79 1019.44 1018.82 1018.05 1017.47 1017.41 1017.28 1017.19 1017.13 1016.69 1015.15 1013.74 1013.84 1013.63 1013.63 1013.69 1013.90 1013.96 1014.05 1014.09 1014.53 1015.34 1015.42 1015.42 1015.54 1015.52 1015.18 1015.03 1014.89 1015.05 1014.84
1014.69 1014.96 1015.59 1016.04 1016.61 1016.97 1017.55 1018.02 1018.31 1018.95 1019.14 1019.76 1019.85 1020.09 1020.41 1020.03 1019.85 1019.44 1018.59 1017.57 1017.11 1017.32 1017.23 1017.12 1017.07 1016.99 1015.00 1014.54 1014.04 1013.71 1013.58 1013.66 1013.94 1014.13 1014.42 1014.61 1015.34 1015.78 1015.99 1015.72 1015.68 1015.84 1015.75 1015.58 1015.53 1016.05 1016.47
1014.09 1014.15 1014.77 1015.18 1015.80 1016.01 1016.95 1017.60 1018.05 1018.49 1018.78 1019.19 1019.62 1019.96 1020.13 1019.98 1019.82 1019.47 1018.72 1017.69 1017.89 1017.81 1017.45 1017.26 1017.11 1016.46 1015.41 1014.93 1014.32 1013.77 1013.64 1013.75 1014.17 1014.56 1015.09 1015.67 1015.76 1015.93 1016.13 1016.03 1015.98 1016.10 1016.17 1015.88 1015.97 1016.66 1017.42
1013.17 1013.84 1014.13 1014.44 1015.14 1015.44 1016.34 1016.99 1017.59 1018.07 1018.45 1018.78 1019.30 1019.74 1019.82 1020.06 1019.61 1019.35 1019.43 1019.19 1019.38 1019.59 1018.41 1016.87 1016.65 1016.23 1015.60 1015.28 1015.22 1014.03 1013.67 1014.09 1014.56 1015.04 1015.45 1015.97 1015.85 1015.87 1016.09 1016.25 1016.21 1016.23 1016.15 1016.13 1016.28 1016.92 1017.64
1012.50 1012.93 1013.47 1013.77 1014.27 1014.69 1015.63 1016.33 1017.02 1017.55 1017.96 1018.51 1019.05 1019.39 1019.73 1019.91 1019.52 1019.21 1019.45 1019.82 1019.53 1019.39 1019.08 1016.78 1016.09 1015.60 1015.16 1015.04 1014.77 1014.11 1013.91 1014.16 1014.87 1015.27 1015.54 1015.74 1015.80 1015.75 1015.98 1016.07 1016.14 1016.13 1015.94 1015.99 1016.19 1017.18 1018.14
1011.70 1012.13 1012.79 1013.06 1013.69 1014.23 1015.00 1015.73 1016.30 1016.95 1017.46 1018.13 1018.74 1019.04 1019.59 1019.99 1019.93 1019.46 1019.63 1019.63 1019.47 1019.44 1019.03 1016.47 1015.55 1014.51 1014.78 1014.67 1014.40 1013.68 1013.44 1013.96 1014.90 1015.25 1015.65 1015.77 1015.57 1015.61 1015.82 1015.75 1015.73 1015.70 1015.57 1015.78 1016.16 1016.85 1017.55
1010.68 1011.27 1011.80 1012.49 1013.19 1013.62 1014.38 1015.00 1015.58 1016.30 1017.12 1017.74 1018.55 1018.77 1019.54 1020.38 1019.56 1019.37 1019.55 1019.62 1019.37 1019.59 1018.17 1015.75 1014.78 1013.89 1014.33 1014.46 1013.78 1013.68 1013.68 1013.84 1014.46 1015.16 1015.66 1015.44 1015.37 1015.43 1015.53 1015.30 1015.35 1015.50 1015.68 1015.94 1016.24 1016.88 1017.40
1010.19 1010.48 1011.13 1011.70 1012.48 1013.05 1013.58 1014.24 1014.91 1015.86 1016.71 1017.47 1018.08 1018.87 1019.63 1019.99 1019.43 1019.31 1019.06 1019.65 1019.64 1019.68 1017.37 1015.43 1014.52 1014.35 1014.51 1014.11 1013.63 1013.62 1013.76 1013.88 1014.60 1015.13 1015.44 1015.38 1015.35 1015.19 1015.07 1015.07 1015.20 1015.43 1015.98 1016.46 1017.04 1017.29 1017.56
1009.71 1009.76 1010.27 1010.91 1011.58 1012.13 1012.78 1013.39 1014.17 1015.34 1016.46 1017.28 1018.09 1018.52 1019.18 1019.06 1019.15 1018.89 1019.29 1019.99 1020.36 1018.91 1016.58 1015.73 1015.13 1014.67 1014.41 1014.18 1014.02 1013.78 1014.06 1014.41 1014.61 1015.32 1015.45 1015.31 1015.13 1014.91 1014.90 1015.14 1015.39 1015.65 1016.15 1016.78 1017.26 1017.45 1017.63
1008.92 1009.25 1009.48 1010.29 1010.88 1011.52 1012.19 1012.98 1013.66 1014.54 1015.79 1017.06 1017.63 1018.09 1018.79 1018.76 1018.68 1018.97 1019.69 1020.47 1019.39 1017.45 1016.65 1015.90 1015.62 1015.25 1014.84 1014.46 1014.21 1014.15 1014.35 1014.76 1014.88 1014.95 1015.38 1015.15 1015.09 1014.81 1014.74 1014.67 1014.87 1015.55 1016.02 1016.57 1017.06 1017.62 1017.91
1008.42 1008.30 1008.91 1009.67 1010.19 1010.79 1011.34 1012.04 1012.96 1013.88 1015.03 1016.84 1017.41 1018.29 1018.58 1018.32 1018.67 1018.95 1019.53 1019.40 1018.39 1017.42 1016.64 1016.38 1015.90 1015.67 1015.44 1014.99 1014.59 1014.68 1014.92 1015.07 1014.94 1014.90 1015.10 1015.21 1014.92 1014.74 1014.72 1014.63 1014.96 1015.85 1016.36 1016.81 1017.56 1018.67 1018.51
1007.60 1008.03 1008.25 1008.85 1009.53 1010.03 1010.73 1011.33 1012.21 1012.96 1014.53 1015.87 1016.73 1017.91 1017.50 1017.33 1018.22 1018.95 1019.09 1018.16 1017.70 1017.24 1017.05 1016.63 1016.42 1016.24 1015.84 1015.97 1015.23 1015.23 1015.46 1015.64 1015.37 1015.25 1015.16 1015.15 1015.18 1015.08 1015.02 1015.01 1015.33 1015.29 1016.46 1017.17 1017.82 1018.56 1018.65
1007.17 1007.55 1007.79 1008.03 1008.72 1009.34 1010.10 1010.66 1011.64 1012.67 1013.98 1014.75 1016.29 1016.98 1016.15 1016.85 1017.77 1018.47 1018.06 1017.57 1017.06 1017.05 1017.03 1017.04 1016.94 1016.73 1016.48 1016.52 1016.21 1016.08 1016.31 1016.16 1015.87 1015.65 1015.24 1015.36 1015.40 1015.77 1015.43 1015.81 1015.85 1016.32 1016.66 1017.60 1018.27 1019.03 1019.07
1006.32 1006.77 1007.20 1007.20 1007.88 1008.58 1009.38 1010.07 1010.92 1012.16 1013.00 1014.34 1014.97 1015.26 1015.92 1016.00 1017.27 1017.30 1017.31 1016.81 1016.56 1017.13 1017.36 1017.47 1017.29 1017.19 1017.04 1017.08 1016.83 1016.63 1016.61 1016.52 1016.20 1016.03 1015.77 1016.04 1016.23 1016.29 1016.52 1016.59 1016.55 1016.52 1016.99 1017.57 1018.47 1019.57 1019.94
1006.07 1006.41 1006.62 1006.89 1007.15 1008.04 1008.72 1009.43 1010.03 1010.99 1011.24 1012.58 1013.81 1014.99 1015.41 1014.91 1015.47 1016.20 1016.60 1016.52 1016.58 1017.08 1017.05 1017.27 1017.71 1017.81 1017.64 1017.46 1017.40 1017.12 1017.05 1016.91 1016.64 1016.45 1016.29 1016.31 1017.00 1017.20 1017.29 1017.48 1017.13 1017.18 1017.63 1018.17 1018.78 1019.26 1019.41
1005.89 1006.35 1006.28 1006.91 1006.37 1007.36 1008.08 1009.05 1009.46 1010.04 1010.57 1011.87 1013.27 1014.52 1015.19 1015.29 1014.66 1015.01 1015.69 1016.21 1016.69 1016.86 1017.04 1017.19 1017.71 1018.12 1018.19 1017.86 1017.60 1017.58 1017.55 1017.35 1017.13 1017.04 1016.99 1016.79 1017.44 1017.44 1017.71 1017.78 1017.85 1017.98 1018.20 1018.64 1018.76 1019.36 1019.13
1005.47 1005.86 1005.95 1006.25 1006.10 1006.57 1007.32 1008.16 1008.62 1009.78 1009.99 1010.65 1011.97 1013.39 1013.90 1014.54 1014.57 1014.84 1015.18 1015.59 1016.27 1016.96 1017.07 1017.27 1018.05 1018.20 1018.28 1018.36 1018.20 1017.91 1017.70 1017.66 1017.63 1017.66 1017.53 1017.56 1018.09 1018.42 1018.61 1018.78 1018.68 1018.59 1018.68 1018.95 1019.07 1018.99 1018.83
1005.21 1005.20 1005.36 1005.87 1006.26 1005.93 1006.89 1007.91 1008.45 1009.52 1010.53 1010.53 1011.88 1012.81 1014.20 1014.41 1014.68 1014.77 1014.99 1015.31 1015.64 1016.61 1016.86 1017.60 1017.91 1018.09 1018.14 1017.99 1018.05 1017.93 1017.70 1017.79 1017.85 1018.04 1018.13 1018.42 1019.05 1019.30 1019.49 1019.52 1019.60 1019.22 1019.08 1019.09 1019.04 1018.88 1018.49
1004.41 1004.74 1004.92 1005.54 1005.97 1005.52 1006.40 1007.29 1008.17 1008.74 1009.59 1010.25 1011.65 1011.79 1012.10 1014.58 1014.31 1014.66 1014.50 1015.17 1015.48 1015.97 1016.60 1016.72 1017.46 1018.00 1018.02 1017.35 1017.60 1017.75 1017.90 1017.89 1018.09 1018.25 1018.69 1019.08 1019.59 1019.88 1020.40 1020.13 1019.99 1019.83 1018.81 1018.44 1018.40 1018.32 1018.09
1003.86 1004.61 1005.18 1005.37 1005.23 1005.26 1005.59 1006.76 1007.55 1008.17 1008.23 1009.62 1010.80 1011.10 1012.50 1014.43 1014.66 1014.18 1014.65 1014.78 1015.11 1015.68 1016.47 1016.98 1017.34 1017.50 1017.42 1017.20 1017.63 1018.18 1018.26 1018.25 1018.28 1018.65 1018.82 1019.47 1020.06 1020.44 1020.81 1020.65 1020.00 1018.82 1018.59 1018.36 1018.30 1018.04 1018.02
1003.25 1003.40 1004.03 1004.91 1004.83 1004.95 1005.31 1006.25 1007.15 1007.87 1008.68 1009.00 1009.68 1010.67 1012.14 1014.21 1014.35 1014.93 1014.97 1014.85 1015.53 1016.18 1017.01 1017.28 1017.02 1017.10 1017.25 1017.46 1018.14 1018.79 1018.98 1018.79 1018.61 1019.23 1019.22 1019.23 1020.00 1021.23 1021.33 1020.63 1019.49 1018.41 1018.25 1018.21 1018.17 1017.86 1017.59
1003.04 1003.61 1004.14 1004.59 1005.02 1004.86 1005.67 1005.39 1006.57 1007.56 1008.49 1009.30 1009.99 1010.16 1011.14 1013.67 1014.73 1014.33 1014.90 1015.41 1016.20 1016.64 1017.43 1017.23 1017.41 1017.30 1017.48 1018.05 1018.68 1018.95 1019.15 1019.01 1019.31 1019.83 1020.01 1020.13 1020.15 1021.02 1021.83 1021.06 1019.56 1018.37 1017.90 1017.79 1018.05 1017.69 1017.52
1002.25 1002.99 1003.97 1003.77 1003.80 1004.41 1005.61 1004.66 1006.03 1007.12 1008.19 1009.19 1010.14 1010.60 1012.14 1013.68 1014.30 1014.14 1014.67 1014.96 1015.44 1016.65 1017.44 1017.78 1017.83 1017.89 1017.58 1018.33 1018.91 1019.36 1019.16 1018.93 1019.24 1019.62 1020.18 1020.73 1021.07 1021.12 1021.16 1020.69 1019.05 1017.78 1017.69 1017.69 1018.16 1017.85 1017.15
1002.18 1002.46 1002.65 1002.57 1003.53 1004.34 1005.10 1004.37 1005.61 1006.47 1007.70 1008.85 1010.77 1010.48 1010.64 1013.12 1015.13 1014.78 1014.67 1015.25 1016.00 1016.27 1017.06 1017.51 1018.18 1018.28 1018.43 1018.61 1019.15 1019.38 1019.28 1019.18 1018.93 1018.65 1018.92 1019.59 1020.21 1020.67 1020.49 1019.97 1018.29 1017.13 1017.60 1017.47 1016.94 1017.05 1017.07
1002.05 1002.45 1002.60 1003.44 1003.85 1004.12 1004.52 1004.40 1004.78 1005.95 1007.15 1008.23 1009.83 1009.74 1010.20 1012.65 1015.37 1015.27 1015.31 1015.39 1015.49 1015.50 1016.16 1017.06 1017.34 1017.26 1017.42 1018.14 1018.84 1019.02 1019.45 1019.40 1018.61 1018.91 1018.76 1018.79 1018.24 1018.51 1018.73 1017.97 1017.09 1016.84 1016.43 1016.20 1016.56 1016.69 1016.70
Thickness
5629 5631 5633 5634 5638 5638 5645 5651 5655 5660 5662 5667 5672 5678 5683 5689 5695 5702 5709 5718 5724 5730 5735 5741 5748 5758 5766 5754 5760 5778 5779 5782 5785 5786 5777 5770 5762 5754 5744 5743 5746 5743 5744 5746 5746 5744 5742
5623 5624 5626 5627 5630 5632 5634 5641 5646 5648 5653 5657 5662 5668 5674 5680 5687 5694 5701 5709 5718 5724 5730 5736 5742 5749 5749 5736 5770 5771 5775 5777 5777 5775 5770 5767 5759 5756 5744 5738 5737 5739 5737 5736 5738 5739 5736
5617 5619 5619 5620 5623 5627 5629 5632 5635 5640 5643 5648 5652 5658 5665 5671 5678 5686 5693 5701 5710 5717 5725 5730 5736 5740 5737 5742 5766 5766 5768 5768 5770 5768 5761 5764 5761 5753 5743 5734 5737 5735 5728 5734 5736 5731 5729
5611 5614 5614 5615 5618 5624 5626 5626 5628 5630 5631 5638 5642 5646 5652 5661 5668 5677 5685 5694 5705 5712 5718 5724 5727 5732 5729 5757 5760 5762 5762 5761 5764 5764 5761 5761 5759 5745 5737 5733 5726 5721 5718 5713 5723 5726 5724
5603 5606 5608 5612 5615 5620 5620 5622 5623 5624 5624 5626 5629 5634 5639 5648 5658 5667 5678 5689 5700 5706 5711 5715 5719 5720 5721 5753 5748 5756 5757 5752 5753 5754 5752 5753 5744 5726 5725 5716 5712 5708 5701 5698 5706 5713 5715
5595 5599 5602 5609 5611 5614 5616 5617 5620 5618 5620 5618 5621 5624 5627 5638 5646 5656 5670 5684 5692 5696 5700 5704 5709 5705 5725 5726 5739 5745 5750 5749 5740 5739 5734 5732 5720 5710 5706 5708 5692 5690 5689 5691 5688 5697 5693
5586 5593 5596 5604 5607 5611 5610 5611 5612 5615 5616 5615 5614 5614 5618 5627 5635 5645 5657 5671 5671 5675 5684 5687 5693 5697 5710 5722 5732 5734 5740 5735 5730 5722 5706 5708 5703 5694 5698 5699 5697 5690 5683 5682 5689 5689 5679
5579 5580 5589 5597 5599 5605 5605 5606 5607 5610 5610 5610 5609 5608 5610 5615 5627 5636 5639 5645 5648 5652 5660 5682 5685 5693 5703 5709 5700 5719 5732 5714 5709 5697 5701 5696 5686 5697 5696 5691 5688 5682 5680 5680 5683 5679 5675
5566 5574 5581 5590 5595 5601 5601 5602 5604 5605 5605 5606 5605 5605 5603 5605 5616 5624 5627 5629 5637 5644 5642 5669 5679 5685 5694 5698 5696 5702 5714 5706 5694 5687 5690 5684 5690 5691 5689 5686 5680 5678 5678 5677 5681 5670 5663
5552 5564 5573 5583 5588 5593 5596 5597 5601 5602 5602 5601 5598 5599 5598 5598 5603 5612 5614 5620 5626 5631 5622 5654 5667 5680 5684 5689 5685 5706 5710 5701 5686 5680 5679 5679 5687 5682 5679 5679 5682 5675 5685 5682 5677 5669 5659
5540 5553 5563 5573 5580 5587 5589 5594 5597 5599 5597 5596 5593 5594 5590 5585 5597 5604 5608 5611 5618 5619 5604 5651 5658 5680 5676 5676 5685 5689 5699 5688 5676 5675 5674 5674 5676 5673 5671 5678 5682 5679 5681 5677 5674 5664 5659
5525 5542 5553 5564 5572 5579 5586 5589 5594 5593 5593 5591 5590 5587 5583 5583 5592 5599 5605 5604 5606 5595 5590 5635 5650 5650 5654 5665 5675 5677 5678 5681 5679 5667 5668 5670 5675 5677 5679 5680 5680 5679 5671 5662 5654 5652 5643
5510 5529 5544 5555 5566 5575 5581 5587 5591 5589 5586 5584 5583 5585 5581 5583 5589 5598 5598 5592 5581 5580 5627 5627 5634 5645 5649 5653 5658 5663 5659 5656 5656 5646 5650 5659 5665 5675 5677 5670 5673 5670 5660 5642 5638 5637 5638
5497 5515 5534 5545 5557 5567 5575 5580 5585 5586 5581 5578 5579 5578 5578 5581 5585 5589 5588 5577 5577 5605 5612 5627 5629 5634 5637 5646 5651 5654 5653 5649 5654 5656 5645 5649 5647 5667 5672 5671 5667 5663 5661 5643 5626 5631 5638
5483 5505 5521 5534 5548 5559 5570 5576 5581 5583 5579 5571 5570 5571 5573 5580 5580 5583 5581 5573 5586 5597 5612 5615 5623 5623 5627 5637 5644 5645 5645 5645 5653 5657 5650 5645 5650 5667 5667 5672 5671 5652 5649 5652 5630 5618 5628
5473 5491 5510 5526 5538 5551 5562 5570 5577 5580 5568 5570 5569 5565 5574 5579 5577 5577 5578 5587 5591 5598 5605 5611 5610 5615 5618 5622 5631 5636 5636 5640 5646 5652 5655 5651 5642 5656 5662 5666 5664 5663 5654 5639 5631 5618 5618
5459 5479 5498 5517 5530 5542 5554 5564 5569 5569 5567 5570 5556 5559 5575 5575 5575 5575 5580 5592 5595 5600 5604 5606 5605 5608 5613 5614 5620 5621 5622 5633 5639 5645 5652 5649 5647 5644 5655 5646 5647 5648 5643 5632 5632 5619 5619
5450 5470 5487 5508 5522 5535 5545 5553 5562 5562 5566 5561 5560 5569 5570 5575 5572 5575 5580 5596 5603 5596 5597 5599 5603 5607 5609 5611 5612 5615 5619 5626 5633 5638 5641 5638 5634 5629 5635 5641 5644 5646 5641 5638 5623 5613 5597
5438 5456 5477 5493 5513 5524 5537 5546 5559 5553 5565 5564 5564 5563 5565 5575 5578 5575 5582 5591 5595 5593 5597 5597 5595 5600 5605 5607 5604 5609 5615 5624 5627 5631 5635 5636 5623 5618 5625 5631 5638 5636 5632 5624 5617 5610 5605
5422 5442 5465 5479 5503 5515 5529 5537 5547 5553 5560 5559 5557 5554 5559 5562 5578 5585 5582 5582 5582 5591 5591 5595 5594 5594 5595 5598 5604 5605 5608 5615 5621 5624 5620 5629 5618 5623 5618 5623 5624 5621 5623 5619 5621 5603 5609
5413 5435 5453 5469 5490 5507 5521 5529 5539 5542 5550 5553 5552 5551 5558 5563 5571 5577 5583 5584 5583 5578 5586 5589 5585 5589 5589 5585 5590 5596 5602 5606 5613 5613 5617 5620 5611 5611 5611 5610 5612 5614 5616 5611 5611 5610 5606
5409 5428 5447 5460 5475 5493 5506 5507 5512 5521 5526 5540 5541 5547 5541 5555 5565 5573 5573 5576 5586 5577 5581 5578 5580 5582 5584 5586 5587 5586 5596 5599 5602 5607 5607 5605 5596 5600 5584 5599 5598 5601 5605 5606 5605 5604 5604
5405 5422 5438 5451 5461 5483 5494 5501 5507 5509 5516 5523 5524 5544 5563 5535 5559 5563 5569 5567 5577 5579 5577 5581 5578 5574 5578 5589 5589 5593 5595 5598 5599 5599 5594 5596 5590 5592 5587 5588 5589 5589 5600 5607 5605 5604 5606
5402 5412 5425 5440 5455 5472 5487 5493 5499 5510 5521 5526 5532 5543 5541 5529 5544 5563 5562 5570 5571 5576 5574 5571 5571 5575 5583 5587 5585 5583 5585 5589 5592 5590 5594 5586 5582 5576 5579 5582 5577 5604 5604 5605 5602 5603 5603
5397 5410 5422 5433 5449 5461 5476 5483 5491 5501 5508 5523 5530 5533 5530 5519 5537 5541 5551 5560 5557 5559 5561 5561 5569 5574 5576 5579 5569 5565 5566 5576 5584 5578 5585 5591 5580 5564 5570 5576 5587 5605 5599 5598 5597 5601 5605
5387 5397 5411 5427 5433 5453 5463 5480 5486 5492 5500 5509 5516 5529 5532 5522 5522 5543 5544 5546 5541 5543 5546 5556 5558 5562 5567 5561 5555 5557 5560 5568 5569 5568 5566 5569 5574 5571 5551 5560 5569 5591 5597 5598 5594 5591 5600
5386 5391 5399 5420 5440 5448 5452 5476 5480 5486 5493 5499 5504 5515 5512 5507 5511 5527 5536 5544 5543 5537 5537 5539 5546 5550 5557 5554 5550 5549 5558 5566 5562 5564 5561 5557 5552 5558 5554 5554 5572 5592 5592 5592 5573 5584 5595
5376 5389 5404 5424 5433 5441 5449 5469 5474 5483 5484 5490 5488 5502 5510 5497 5493 5509 5520 5526 5524 5534 5533 5535 5535 5536 5534 5547 5545 5539 5547 5555 5561 5566 5562 5564 5558 5552 5551 5549 5562 5589 5580 5577 5590 5587 5588
5369 5378 5393 5408 5422 5435 5446 5461 5472 5476 5478 5485 5485 5495 5501 5495 5483 5494 5504 5511 5519 5528 5524 5520 5536 5537 5544 5542 5538 5541 5540 5540 5554 5552 5553 5559 5570 5564 5566 5570 5579 5578 5585 5584 5579 5582 5583